When you browse on this site, cookies collect data to enhance your experience and personalize the content and advertising you see.
Visit our Privacy Policy to learn more. By continuing to use the site, you agree to this use of cookies and data.
  • In United Kingdom
  • List of Countries
  • For 7 days
  • Water Temperature
  • Weather Map
  • Weather Widgets
  • user-avatar
    Login

    Hourly Weather Olsztyn

    Today, 19 September, Thursday

    Time Temperature Precipitation Wind Pressure Humidity
    00:00 +5°C° 0 mm 3 mps 751 mmHg 87%
    01:00 +5°C° 0 mm 3 mps 751 mmHg 88%
    02:00 +5°C° 0 mm 3 mps 751 mmHg 90%
    03:00 +5°C° 0 mm 3 mps 752 mmHg 91%
    04:00 +5°C° 0 mm 3 mps 752 mmHg 93%
    05:00 +7°C° 0 mm 3 mps 752 mmHg 89%
    06:00 +8°C° 0 mm 3 mps 752 mmHg 85%
    07:00 +8°C° 0 mm 3 mps 752 mmHg 81%
    08:00 +10°C° 0.3 mm 3 mps 753 mmHg 75%
    09:00 +11°C° 0.3 mm 4 mps 753 mmHg 69%
    10:00 +13°C° 0.3 mm 5 mps 753 mmHg 64%
    11:00 +13°C° 0.4 mm 5 mps 754 mmHg 62%
    12:00 +13°C° 0.4 mm 5 mps 754 mmHg 61%
    13:00 +13°C° 0.4 mm 5 mps 754 mmHg 60%
    14:00 +13°C° 0.2 mm 5 mps 754 mmHg 62%
    15:00 +12°C° 0.2 mm 5 mps 754 mmHg 65%
    16:00 +12°C° 0.2 mm 5 mps 754 mmHg 68%
    17:00 +9°C° 0 mm 5 mps 754 mmHg 75%
    18:00 +8°C° 0 mm 4 mps 754 mmHg 81%
    19:00 +7°C° 0 mm 4 mps 755 mmHg 87%
    20:00 +7°C° 0 mm 3 mps 755 mmHg 88%
    21:00 +7°C° 0 mm 3 mps 755 mmHg 88%
    22:00 +5°C° 0 mm 3 mps 756 mmHg 89%
    23:00 +5°C° 0 mm 3 mps 756 mmHg 89%

    Tomorrow, 20 September, Friday

    Time Temperature Precipitation Wind Pressure Humidity
    00:00 +5°C° 0 mm 3 mps 756 mmHg 89%
    01:00 +5°C° 0 mm 2 mps 756 mmHg 89%
    02:00 +5°C° 0 mm 2 mps 756 mmHg 89%
    03:00 +5°C° 0 mm 2 mps 756 mmHg 89%
    04:00 +5°C° 0 mm 2 mps 756 mmHg 89%
    05:00 +6°C° 0 mm 2 mps 756 mmHg 85%
    06:00 +6°C° 0 mm 2 mps 756 mmHg 81%
    07:00 +7°C° 0 mm 3 mps 756 mmHg 77%
    08:00 +9°C° 0.1 mm 3 mps 756 mmHg 71%
    09:00 +11°C° 0.1 mm 3 mps 757 mmHg 65%
    10:00 +12°C° 0.1 mm 3 mps 757 mmHg 59%
    11:00 +13°C° 0.2 mm 3 mps 757 mmHg 57%
    12:00 +13°C° 0.2 mm 3 mps 756 mmHg 56%
    13:00 +13°C° 0.2 mm 3 mps 756 mmHg 54%
    14:00 +13°C° 0 mm 3 mps 756 mmHg 54%
    15:00 +13°C° 0 mm 3 mps 756 mmHg 53%
    16:00 +13°C° 0 mm 3 mps 756 mmHg 53%
    17:00 +12°C° 0 mm 2 mps 756 mmHg 57%
    18:00 +10°C° 0 mm 2 mps 756 mmHg 61%
    19:00 +9°C° 0 mm 1 mps 756 mmHg 66%
    20:00 +8°C° 0 mm 2 mps 755 mmHg 71%
    21:00 +8°C° 0 mm 2 mps 755 mmHg 75%
    22:00 +8°C° 0 mm 2 mps 755 mmHg 80%
    23:00 +8°C° 0 mm 3 mps 755 mmHg 81%

    Day after tomorrow, 21 September, Saturday

    Time Temperature Precipitation Wind Pressure Humidity
    00:00 +8°C° 0 mm 4 mps 755 mmHg 82%
    01:00 +10°C° 0 mm 4 mps 755 mmHg 83%
    02:00 +10°C° 0 mm 4 mps 754 mmHg 87%
    03:00 +8°C° 0 mm 4 mps 754 mmHg 90%
    04:00 +8°C° 0 mm 4 mps 754 mmHg 94%
    05:00 +10°C° 0 mm 4 mps 754 mmHg 93%
    06:00 +9°C° 0 mm 5 mps 754 mmHg 91%
    07:00 +10°C° 0 mm 5 mps 754 mmHg 89%
    08:00 +10°C° 0 mm 5 mps 754 mmHg 87%
    09:00 +12°C° 0 mm 5 mps 754 mmHg 84%
    10:00 +13°C° 0 mm 5 mps 754 mmHg 81%
    11:00 +13°C° 0 mm 5 mps 754 mmHg 79%
    12:00 +14°C° 0 mm 5 mps 754 mmHg 77%
    13:00 +14°C° 0 mm 5 mps 754 mmHg 75%
    14:00 +14°C° 0 mm 4 mps 753 mmHg 75%
    15:00 +14°C° 0 mm 4 mps 753 mmHg 74%
    16:00 +16°C° 0 mm 3 mps 753 mmHg 74%
    17:00 +14°C° 0 mm 3 mps 753 mmHg 77%
    18:00 +14°C° 0 mm 2 mps 753 mmHg 81%
    19:00 +13°C° 0 mm 2 mps 753 mmHg 84%
    20:00 +13°C° 0 mm 2 mps 753 mmHg 87%
    21:00 +12°C° 0 mm 2 mps 753 mmHg 90%
    22:00 +10°C° 0 mm 2 mps 753 mmHg 93%
    23:00 +10°C° 0 mm 2 mps 753 mmHg 94%

    22 September, Sunday

    Time Temperature Precipitation Wind Pressure Humidity
    00:00 +10°C° 0 mm 2 mps 753 mmHg 94%
    01:00 +9°C° 0 mm 2 mps 753 mmHg 95%
    02:00 +9°C° 0 mm 2 mps 753 mmHg 95%
    03:00 +9°C° 0 mm 2 mps 752 mmHg 95%
    04:00 +9°C° 0 mm 2 mps 752 mmHg 95%
    05:00 +10°C° 0 mm 2 mps 752 mmHg 93%
    06:00 +10°C° 0 mm 2 mps 752 mmHg 90%
    07:00 +12°C° 0 mm 2 mps 752 mmHg 88%
    08:00 +14°C° 0 mm 2 mps 752 mmHg 79%
    09:00 +16°C° 0 mm 2 mps 752 mmHg 70%
    10:00 +18°C° 0 mm 2 mps 753 mmHg 61%
    11:00 +19°C° 0 mm 2 mps 752 mmHg 57%
    12:00 +21°C° 0 mm 1 mps 752 mmHg 53%
    13:00 +22°C° 0 mm 1 mps 751 mmHg 48%
    14:00 +22°C° 0 mm 1 mps 751 mmHg 51%
    15:00 +22°C° 0 mm 1 mps 751 mmHg 53%
    16:00 +21°C° 0 mm 1 mps 750 mmHg 55%
    17:00 +19°C° 0 mm 1 mps 750 mmHg 61%
    18:00 +16°C° 0 mm 1 mps 750 mmHg 68%
    19:00 +14°C° 0 mm 2 mps 750 mmHg 74%
    20:00 +14°C° 0 mm 2 mps 750 mmHg 76%
    21:00 +13°C° 0 mm 2 mps 750 mmHg 78%
    22:00 +13°C° 0 mm 2 mps 749 mmHg 80%
    23:00 +11°C° 0 mm 3 mps 749 mmHg 82%

    23 September, Monday

    Time Temperature Precipitation Wind Pressure Humidity
    00:00 +11°C° 0 mm 3 mps 749 mmHg 84%
    01:00 +11°C° 0 mm 3 mps 748 mmHg 86%
    02:00 +10°C° 0 mm 3 mps 748 mmHg 86%
    03:00 +10°C° 0 mm 3 mps 747 mmHg 86%
    04:00 +10°C° 0 mm 3 mps 747 mmHg 87%
    05:00 +11°C° 0 mm 3 mps 746 mmHg 83%
    06:00 +11°C° 0 mm 4 mps 746 mmHg 80%
    07:00 +12°C° 0 mm 4 mps 745 mmHg 77%
    08:00 +12°C° 0 mm 4 mps 745 mmHg 72%
    09:00 +13°C° 0 mm 4 mps 745 mmHg 68%
    10:00 +14°C° 0 mm 4 mps 745 mmHg 64%
    11:00 +16°C° 0 mm 3 mps 744 mmHg 63%
    12:00 +16°C° 0 mm 3 mps 744 mmHg 61%
    13:00 +17°C° 0 mm 2 mps 743 mmHg 60%
    14:00 +17°C° 0 mm 2 mps 743 mmHg 62%
    15:00 +17°C° 0 mm 2 mps 743 mmHg 63%
    16:00 +16°C° 0 mm 2 mps 742 mmHg 65%
    17:00 +16°C° 0 mm 1 mps 742 mmHg 67%
    18:00 +15°C° 0 mm 1 mps 742 mmHg 69%
    19:00 +14°C° 0 mm 1 mps 742 mmHg 71%
    20:00 +14°C° 0 mm 1 mps 742 mmHg 71%
    21:00 +14°C° 0 mm 1 mps 742 mmHg 71%
    22:00 +14°C° 0 mm 1 mps 742 mmHg 71%
    23:00 +13°C° 0 mm 1 mps 742 mmHg 74%

    24 September, Tuesday

    Time Temperature Precipitation Wind Pressure Humidity
    00:00 +13°C° 0 mm 1 mps 742 mmHg 76%
    01:00 +12°C° 0 mm 1 mps 742 mmHg 78%
    02:00 +12°C° 0 mm 1 mps 742 mmHg 81%
    03:00 +11°C° 0 mm 1 mps 742 mmHg 84%
    04:00 +11°C° 0 mm 1 mps 742 mmHg 87%
    05:00 +10°C° 0 mm 2 mps 742 mmHg 86%
    06:00 +10°C° 0 mm 2 mps 742 mmHg 86%
    07:00 +12°C° 0 mm 2 mps 742 mmHg 85%
    08:00 +13°C° 0 mm 2 mps 743 mmHg 79%
    09:00 +15°C° 0 mm 2 mps 743 mmHg 72%
    10:00 +17°C° 0 mm 2 mps 744 mmHg 66%
    11:00 +17°C° 0 mm 2 mps 743 mmHg 63%
    12:00 +18°C° 0 mm 2 mps 743 mmHg 60%
    13:00 +19°C° 0 mm 2 mps 743 mmHg 57%
    14:00 +19°C° 0 mm 2 mps 743 mmHg 59%
    15:00 +18°C° 0 mm 2 mps 743 mmHg 62%
    16:00 +18°C° 0 mm 2 mps 744 mmHg 64%
    17:00 +16°C° 0 mm 2 mps 744 mmHg 71%
    18:00 +15°C° 0 mm 1 mps 744 mmHg 79%
    19:00 +13°C° 0 mm 1 mps 744 mmHg 86%
    20:00 +13°C° 0 mm 1 mps 744 mmHg 87%
    21:00 +13°C° 0 mm 1 mps 744 mmHg 88%
    22:00 +13°C° 0 mm 1 mps 744 mmHg 89%
    23:00 +13°C° 0 mm 1 mps 744 mmHg 89%
    Show more